Theta_e
334 327 328 327 324 320 317 315 302 307 304 299 301 303 302 310 312 310 309 312 308 313 317 317 317 316 313 312 329 331 331 328 329 317 320 336 347 347 348 347 346 346 344 346 347 347 348 350 351 351 350 350 350 350 350 350 350 350 350 351 352 352 352 353 353 353 353 353 353 353 353 353 352 352 352 352 352 352 352 351 351 352 351 351 350 350 350 350 349 349 349 348 347 347 346 345 344
325 326 325 324 320 317 310 313 304 301 302 299 300 304 305 309 309 308 308 311 311 313 317 318 318 319 319 318 324 331 330 332 335 335 338 342 346 348 349 348 348 344 343 345 347 348 347 349 351 351 351 351 350 350 350 350 350 350 351 352 352 353 353 353 353 353 353 353 353 353 353 353 353 352 353 352 351 352 351 352 352 351 351 351 350 350 350 350 349 349 349 348 348 347 347 345 343
323 323 320 321 318 315 313 312 299 300 298 296 300 303 309 306 306 309 311 313 314 316 317 317 318 319 319 324 327 325 326 339 339 335 334 344 342 345 349 348 347 344 343 345 346 347 348 349 352 351 351 351 350 350 351 351 351 352 352 353 353 353 353 353 353 353 353 353 353 353 353 353 353 352 352 352 351 351 351 351 351 351 351 350 350 350 350 350 349 349 349 348 348 348 347 345 343
327 325 320 320 311 314 307 306 302 299 297 299 299 305 306 307 308 310 313 314 315 319 318 316 314 321 319 321 325 335 332 333 339 337 333 338 344 348 348 349 348 344 344 345 345 346 348 350 352 351 351 350 350 351 352 352 352 353 353 353 353 353 353 353 354 353 354 353 353 353 353 353 352 352 352 352 351 351 351 351 351 351 350 350 350 350 349 349 348 349 348 348 348 348 346 344 343
320 320 319 315 310 306 306 304 302 302 297 301 299 305 307 308 309 311 313 315 318 319 319 318 315 322 333 330 331 326 326 336 338 342 341 346 350 349 347 348 346 344 344 345 346 347 348 351 351 351 351 350 351 352 352 353 353 353 353 353 353 353 354 353 353 354 353 353 353 353 352 352 352 352 351 351 351 351 351 350 350 350 350 350 349 349 349 349 348 347 346 346 346 347 346 344 343
320 319 321 316 308 313 307 300 299 299 303 305 302 304 307 309 309 311 312 317 316 317 319 316 314 314 327 330 335 329 333 328 338 342 345 344 349 349 348 350 346 344 345 345 345 346 348 351 352 351 351 351 351 353 353 353 353 354 354 354 354 354 353 353 354 353 353 353 352 352 352 352 352 352 352 352 351 351 351 350 350 350 349 350 349 349 348 346 346 346 346 346 346 346 346 344 343
315 315 314 313 311 311 301 299 299 300 303 307 305 306 308 309 310 311 311 313 314 314 318 316 321 319 326 332 335 339 341 338 342 343 349 349 350 350 351 347 345 344 344 343 345 346 348 351 351 351 351 351 352 352 353 354 354 354 354 354 354 353 353 353 353 353 353 353 352 352 351 352 351 351 351 350 350 350 350 350 350 349 349 349 349 348 348 347 346 347 347 348 348 347 345 345 344
320 310 310 306 304 306 301 301 301 302 303 307 309 307 309 310 311 310 310 310 308 309 312 320 323 317 327 337 326 338 344 347 347 350 351 350 351 349 351 347 345 344 343 345 346 347 351 351 351 351 351 352 352 353 353 354 354 353 353 354 353 353 353 353 353 352 352 352 352 352 352 351 351 350 350 350 349 349 348 348 348 348 347 347 347 347 347 346 345 346 347 348 348 349 348 346 344
315 311 312 306 301 303 300 300 301 306 306 308 309 311 316 312 312 311 309 311 310 311 311 312 320 315 325 330 329 338 344 349 350 351 350 350 349 349 349 346 345 344 345 345 347 346 346 351 351 350 351 351 351 352 353 353 353 354 354 353 353 353 352 352 352 352 352 351 351 351 351 351 350 350 349 349 349 348 348 348 347 347 346 346 346 346 346 346 347 347 348 349 348 349 349 348 346
311 310 304 304 303 298 299 300 300 304 305 308 308 310 311 312 311 311 310 309 310 311 311 313 314 321 332 328 331 336 339 349 349 349 349 349 349 350 347 346 346 345 344 343 344 345 345 351 350 350 351 351 351 352 352 352 353 354 353 353 353 352 352 352 352 352 351 351 351 350 350 350 349 348 347 347 347 347 347 346 345 345 344 343 344 344 344 345 346 346 347 347 349 348 348 348 347
306 310 310 302 299 297 297 299 301 305 306 309 309 312 312 312 312 311 310 309 311 309 311 312 310 327 330 332 334 343 346 348 347 345 349 348 349 346 344 346 347 346 343 344 344 345 346 346 352 351 350 351 352 352 353 353 353 353 353 353 352 352 352 352 351 351 351 350 350 350 349 349 349 348 347 347 346 346 346 345 345 345 344 343 343 343 342 343 344 345 345 346 348 348 347 347 347
304 305 306 299 298 298 299 299 301 304 306 308 308 312 313 312 312 308 309 307 309 309 308 311 308 336 331 331 332 340 345 345 345 347 348 349 346 346 346 347 348 345 345 344 344 345 344 346 346 350 352 353 353 353 353 352 353 352 352 352 352 351 351 351 351 350 350 349 349 348 348 348 348 348 347 347 346 346 346 345 345 344 342 343 342 342 342 341 342 344 343 344 346 347 347 346 347
304 306 303 300 299 300 301 300 301 303 304 305 307 310 313 312 310 310 310 309 308 307 307 311 312 329 327 331 336 342 341 345 346 347 347 347 347 345 347 347 348 346 346 345 344 345 345 344 345 346 350 352 352 351 351 351 352 352 352 352 352 351 351 351 351 349 349 349 349 349 348 348 348 348 347 346 346 346 345 345 345 344 343 342 341 341 341 341 340 341 343 343 344 345 346 347 346
305 306 304 299 304 301 300 301 302 301 302 307 309 311 312 309 310 310 309 307 308 307 312 314 313 336 333 334 335 336 339 346 346 348 347 347 346 345 347 347 348 348 346 345 345 345 345 344 345 345 347 347 349 350 351 351 351 351 351 351 351 351 351 351 349 349 349 349 349 348 348 348 348 347 346 346 345 344 344 344 343 343 343 342 341 340 340 341 341 340 342 342 343 343 345 346 346
305 308 304 301 299 300 302 299 301 301 301 307 309 309 309 311 310 310 309 307 308 313 316 316 336 330 326 330 330 336 341 345 346 348 349 348 346 346 346 347 349 347 345 345 345 345 344 344 344 344 346 344 347 348 350 349 351 351 351 351 351 351 351 350 349 349 350 349 349 349 349 348 347 346 345 346 345 345 344 344 344 344 343 343 343 341 340 338 342 340 341 343 343 344 345 347 346
309 307 304 299 297 298 300 301 303 301 302 307 308 310 309 310 312 309 310 311 311 315 316 311 325 313 333 333 336 340 344 346 347 350 348 349 347 347 346 346 345 346 346 346 345 346 345 343 344 345 344 344 345 348 349 349 351 351 351 351 351 351 351 350 349 349 350 349 349 349 348 347 347 346 347 345 345 345 345 343 343 343 343 343 343 343 342 340 339 341 340 342 342 343 346 347 347
311 307 299 299 296 298 300 300 302 298 304 307 309 309 307 307 311 312 316 318 315 314 314 328 322 337 331 336 341 345 346 348 348 348 347 345 343 343 344 344 344 344 346 344 346 346 345 345 346 344 345 345 344 345 347 348 349 350 351 351 351 351 351 350 350 350 349 350 349 349 348 348 348 346 347 346 347 344 344 344 344 343 342 342 342 342 341 339 338 340 342 340 342 341 344 345 346
309 301 299 297 299 299 302 302 304 306 304 307 309 309 308 306 309 311 317 315 315 316 317 332 342 339 339 343 346 346 347 346 347 344 343 342 342 341 341 341 342 341 343 343 346 347 346 347 348 347 347 346 345 344 345 347 348 349 349 349 350 351 351 350 350 349 351 349 350 348 349 349 349 348 349 350 347 344 344 344 344 343 343 344 344 343 344 342 341 340 340 342 342 343 342 345 346
305 302 300 297 301 303 307 307 307 306 305 309 309 309 308 308 309 311 311 314 314 311 316 330 337 341 343 344 345 345 345 345 345 344 343 342 341 341 340 340 341 342 341 342 344 348 347 347 348 346 346 346 345 344 343 345 347 347 348 349 350 351 351 351 349 349 348 348 348 348 351 350 350 349 349 346 348 349 345 345 345 344 345 345 345 344 345 343 342 341 339 341 342 342 340 341 346
307 303 299 300 304 305 307 308 307 309 309 308 308 309 309 309 310 312 309 312 315 310 317 328 332 336 339 341 343 343 344 343 344 344 343 342 342 341 340 340 341 342 342 343 343 348 348 347 348 347 346 346 344 341 341 344 346 345 347 347 349 349 349 349 349 346 347 347 348 351 353 355 347 348 343 350 350 346 345 346 346 345 346 346 346 344 345 345 344 343 340 341 340 337 336 340 343
307 303 300 302 305 303 306 308 309 310 309 308 307 309 308 309 310 310 309 310 311 313 313 329 330 336 338 339 341 343 343 342 343 344 344 343 343 342 341 342 342 343 344 344 344 346 346 346 346 345 345 346 344 341 342 342 345 342 343 344 346 346 347 347 347 348 350 352 347 353 349 348 349 349 348 348 349 347 346 345 346 344 344 343 345 342 342 341 341 336 332 337 333 335 335 337 341
308 304 305 305 306 305 308 308 310 309 310 307 307 306 307 311 317 316 316 312 310 313 314 334 336 338 339 339 340 342 342 341 343 343 341 342 342 341 342 342 345 344 344 342 342 344 345 345 345 344 346 345 343 341 341 341 343 340 342 345 345 343 344 345 345 346 349 352 350 349 350 348 348 348 347 347 346 347 346 345 346 349 346 346 349 342 343 345 338 336 328 328 330 332 334 336 338
301 305 306 307 307 305 308 309 310 309 308 306 305 308 309 308 308 312 316 315 316 322 326 337 339 340 341 342 342 341 340 341 340 340 340 339 340 341 342 341 341 340 342 341 342 342 344 345 345 344 345 345 344 342 342 340 342 346 346 343 343 342 346 344 344 345 346 349 348 349 350 349 346 347 347 345 344 345 345 345 347 349 348 347 344 342 343 344 341 340 331 330 328 330 333 335 338
305 302 306 306 307 306 308 308 310 309 307 306 308 310 307 307 304 309 311 319 325 328 330 335 340 340 341 339 341 340 341 340 338 339 342 341 342 341 342 341 342 342 340 340 341 342 342 343 345 346 342 342 344 343 341 339 345 344 346 346 346 347 347 347 347 347 348 347 348 351 351 349 347 348 347 346 345 346 344 346 347 347 346 344 343 344 343 342 340 339 341 338 335 334 330 332 334
303 303 306 306 307 307 308 308 309 309 308 309 309 306 306 308 307 309 313 322 327 332 335 337 340 339 339 339 340 339 337 336 336 340 342 340 343 343 343 342 342 341 339 339 340 339 342 342 344 344 342 343 345 342 339 341 343 344 346 345 347 346 347 350 348 348 347 347 348 350 350 348 347 346 349 346 346 345 347 347 346 345 347 346 346 346 346 345 344 341 343 339 337 338 336 336 336
305 305 306 306 306 308 307 307 308 309 309 308 306 306 308 309 310 307 327 328 327 332 334 333 336 337 338 339 339 337 337 337 337 338 339 340 340 342 341 340 340 339 339 339 338 338 339 342 343 341 342 343 344 344 347 343 345 344 344 350 345 348 352 349 348 347 348 346 346 347 350 350 348 348 348 348 346 344 346 347 345 342 346 348 346 344 348 346 346 345 346 340 338 339 344 341 339
307 306 306 306 306 307 309 307 308 309 308 308 305 305 306 309 307 308 330 329 331 327 327 331 334 335 336 337 335 335 333 335 336 338 336 334 333 337 340 341 338 338 337 336 337 338 340 342 341 341 341 345 341 340 344 345 345 344 343 346 346 347 349 348 347 351 348 348 347 348 349 352 349 350 348 348 344 343 344 342 342 342 344 345 347 347 348 347 350 347 347 345 343 341 341 340 340
306 306 306 305 306 307 308 308 308 309 307 308 307 305 307 308 307 311 326 331 330 328 327 320 324 328 330 331 332 334 332 332 334 333 331 331 334 338 338 337 338 337 337 337 337 338 340 341 342 343 345 346 345 343 345 344 346 345 347 348 347 347 353 350 348 350 348 349 349 348 351 352 350 351 352 346 346 342 342 340 342 343 344 347 345 344 347 345 345 347 345 348 350 347 344 344 343
305 305 302 303 304 303 306 306 308 308 306 308 308 304 303 304 303 326 328 329 328 326 324 322 325 323 326 328 329 331 328 332 329 331 333 336 337 339 338 339 337 335 337 340 338 339 342 343 343 344 347 347 350 345 344 344 348 346 349 348 349 350 350 350 347 345 348 350 349 346 351 350 349 351 348 348 346 346 344 342 341 339 344 341 341 344 344 345 345 345 348 345 348 345 342 342 342
305 305 302 302 302 300 305 307 308 306 307 308 307 295 298 305 325 329 329 326 328 326 324 323 323 325 327 329 330 330 330 330 329 330 334 338 339 338 336 337 338 336 335 337 339 340 343 344 345 345 343 343 340 342 342 340 341 346 347 351 348 348 351 349 350 350 350 349 351 352 350 351 351 352 352 351 350 351 349 347 343 346 344 344 346 348 347 342 345 345 342 344 345 343 341 342 342
299 303 303 299 297 297 304 305 306 304 307 307 307 296 299 318 327 329 330 329 325 323 324 322 324 326 326 326 326 326 328 330 333 333 335 339 340 338 336 337 338 337 337 337 339 341 342 340 338 335 333 335 339 338 339 342 340 339 344 348 349 350 348 349 350 349 349 349 349 350 351 351 350 350 351 351 347 349 347 348 346 347 345 343 343 349 348 347 345 342 344 341 340 340 340 339 339
301 297 295 299 296 298 303 306 305 302 306 308 305 297 300 320 323 329 329 329 327 321 322 322 321 321 321 323 323 323 324 326 330 330 337 340 339 336 337 337 338 339 339 340 342 339 336 335 335 334 333 334 335 337 337 339 340 340 340 340 345 345 351 347 347 347 348 349 349 348 349 349 351 350 349 349 347 345 345 343 345 346 346 346 346 345 346 341 341 342 345 343 339 339 338 337 339
300 297 295 295 297 297 300 303 306 306 305 306 304 298 314 317 324 327 327 326 323 320 319 318 319 320 321 322 321 321 325 327 330 331 334 339 338 336 334 333 336 341 342 340 338 337 335 334 335 336 335 332 336 338 340 339 340 340 337 340 340 340 343 345 347 347 346 347 349 347 349 350 348 348 347 347 347 344 344 344 347 348 348 347 347 346 345 343 342 341 341 342 341 338 337 336 337
295 298 295 298 296 297 296 303 305 306 305 301 304 301 312 318 324 326 326 326 323 319 318 318 319 319 321 322 322 323 324 325 328 329 334 337 334 332 333 335 336 337 338 338 339 337 335 335 335 336 335 334 340 340 337 339 340 341 341 340 337 339 339 342 343 347 347 347 347 346 347 348 348 346 347 346 348 347 346 346 344 347 346 348 346 345 344 344 343 342 338 341 340 338 336 335 334
293 295 294 296 299 298 297 298 303 304 304 302 302 301 305 319 323 324 325 327 323 320 319 319 318 319 320 321 324 323 324 326 328 332 336 335 333 333 334 336 335 337 337 336 337 338 338 337 336 335 336 338 339 340 339 341 337 337 334 334 338 340 339 341 342 344 345 346 345 344 344 345 344 343 345 346 346 343 343 342 342 343 343 344 343 339 338 339 338 338 337 335 338 337 335 335 334
297 297 296 297 295 296 296 301 305 304 301 300 301 299 308 317 319 323 325 325 323 323 322 322 322 322 322 323 322 322 324 328 331 334 335 334 333 333 335 335 335 335 336 336 336 337 335 334 336 337 338 338 339 340 337 338 337 335 335 336 336 337 337 340 344 343 343 341 342 343 342 342 341 342 341 342 342 342 341 340 340 340 340 339 338 336 336 335 335 335 335 335 334 334 335 335 334
300 300 298 296 297 298 301 301 305 306 302 300 301 303 313 314 316 321 323 324 323 321 322 322 322 320 321 321 322 323 325 325 331 333 334 333 333 334 335 335 334 335 335 334 334 336 336 334 337 337 337 338 338 336 335 336 334 333 333 333 335 334 337 338 340 341 340 340 341 340 340 340 340 340 339 339 337 338 339 339 338 337 336 336 336 335 335 334 334 335 333 334 332 331 331 333 333
300 299 298 296 297 296 301 301 305 305 301 299 302 311 312 313 317 320 323 322 321 321 322 321 322 321 321 321 323 325 327 329 331 331 331 331 332 334 334 334 335 332 332 334 335 336 337 338 338 336 337 337 338 338 337 337 336 334 332 330 332 334 336 337 337 339 339 340 340 339 339 338 337 336 336 335 335 334 335 335 335 333 332 332 333 333 332 332 331 331 331 328 329 328 328 331 330
300 298 298 297 297 299 302 303 305 304 302 300 312 311 311 314 315 318 320 321 322 324 323 321 321 320 319 321 322 323 326 326 328 329 330 330 332 333 333 333 334 334 333 334 335 335 336 337 338 337 337 336 336 338 337 334 336 336 335 334 332 334 338 339 338 339 339 337 337 337 336 335 334 333 333 333 332 332 332 332 332 331 330 330 329 329 328 327 328 329 329 326 324 326 325 328 327
297 297 297 295 298 296 295 301 304 304 302 301 309 309 310 314 316 317 320 318 320 325 325 323 323 320 320 320 322 323 325 325 325 327 327 329 331 333 332 331 332 332 332 333 336 336 336 336 336 336 335 336 336 335 336 337 337 337 337 337 336 335 337 340 339 338 336 335 333 334 333 333 332 330 329 329 330 330 330 330 330 329 329 328 327 326 325 324 326 326 326 325 324 320 321 323 327
298 298 298 298 298 298 299 300 303 304 303 305 308 307 309 312 310 313 317 320 322 323 324 323 322 322 322 324 324 323 325 325 325 327 327 328 330 330 330 331 333 332 333 334 335 335 334 335 336 336 336 337 337 336 336 336 337 336 337 336 337 337 339 337 335 332 332 331 331 330 329 330 328 327 327 327 328 328 328 328 328 328 328 327 327 326 324 324 325 324 324 324 323 321 320 321 324
296 299 299 300 300 299 300 302 300 298 297 301 307 299 300 308 310 311 317 317 317 320 319 320 321 321 321 321 321 324 323 327 326 327 328 328 328 329 330 332 332 333 333 335 335 335 336 335 334 334 335 337 336 336 337 337 335 332 332 330 329 330 331 332 331 329 328 328 327 327 326 326 326 326 325 325 325 326 326 325 326 325 326 326 327 325 323 323 323 323 322 323 322 323 321 319 318
294 296 302 302 302 300 301 301 299 294 292 299 310 298 294 305 306 310 313 315 316 318 318 320 320 320 321 321 320 321 323 326 327 328 329 328 328 328 329 330 331 332 334 334 334 333 334 333 334 335 335 336 338 336 336 335 334 333 332 331 331 329 329 330 331 331 330 329 329 327 325 325 324 324 324 323 323 324 324 323 324 324 324 324 324 321 321 321 321 322 321 322 320 321 320 316 316
294 301 302 302 302 300 301 301 299 298 302 303 305 304 298 297 303 311 313 311 313 315 316 318 319 321 320 321 324 322 324 326 326 327 328 329 328 328 327 329 330 331 333 333 333 333 333 334 334 334 335 336 337 337 337 336 332 332 330 334 332 330 329 328 329 328 328 328 327 325 323 322 322 322 322 320 321 321 322 321 321 321 321 321 321 319 320 321 321 321 321 321 319 320 317 315 314
297 302 303 302 302 302 302 301 299 300 299 295 300 305 298 298 304 310 311 308 309 311 315 316 320 321 322 321 321 323 324 326 327 326 327 328 328 328 328 328 329 330 331 331 332 333 334 334 335 335 334 334 333 335 335 334 335 334 333 332 329 329 329 328 328 327 326 327 325 325 323 321 321 321 320 320 320 319 321 320 319 319 319 319 319 318 319 320 320 318 318 318 317 317 316 317 314
301 304 304 303 303 302 302 300 299 299 296 291 296 302 295 296 303 306 310 308 307 309 313 316 318 320 319 317 317 319 323 324 327 327 327 328 328 328 328 328 328 329 331 331 333 333 333 333 332 333 333 334 335 334 334 334 334 333 332 331 328 327 328 328 328 326 326 325 322 322 322 321 319 320 320 319 319 318 318 318 318 317 317 318 319 317 317 318 318 317 318 318 316 315 315 316 313
305 304 301 300 300 300 301 300 299 297 290 293 298 302 299 292 300 303 304 305 309 311 315 318 319 320 320 318 318 321 323 324 326 326 327 327 328 327 327 326 327 328 330 330 330 331 332 332 331 329 330 331 331 330 331 330 331 331 330 330 329 327 327 327 325 324 324 324 321 320 319 319 319 319 319 318 318 317 317 317 317 316 316 318 317 316 316 317 317 315 316 317 316 315 314 315 313
302 300 298 297 296 300 299 298 299 291 289 296 299 300 302 291 297 305 309 312 314 314 311 314 315 317 318 318 320 322 321 324 325 326 326 326 326 326 326 325 326 327 328 328 329 329 329 328 327 326 326 328 328 328 329 328 328 328 329 328 328 328 327 325 325 323 322 319 320 318 319 319 318 318 318 316 316 316 316 316 316 315 315 315 315 315 315 316 315 314 315 314 314 315 315 315 312
300 299 298 292 289 290 288 293 288 289 289 297 300 300 297 296 301 308 312 314 314 315 315 315 316 318 317 318 318 321 322 324 325 325 324 324 323 324 325 325 326 327 326 327 327 327 327 327 325 324 325 326 327 327 327 328 327 326 326 326 326 327 326 324 323 321 321 321 319 317 317 316 316 315 315 314 314 315 315 314 314 313 313 314 314 314 314 314 314 312 312 312 313 313 312 313 312
297 295 295 291 287 286 284 288 290 291 295 299 298 300 294 300 303 310 310 313 315 315 317 319 319 319 318 319 321 321 323 324 324 324 324 324 324 324 325 325 324 325 324 325 326 325 326 325 324 323 323 326 325 324 325 325 325 325 325 324 326 325 323 323 321 319 320 319 318 317 316 315 314 314 313 313 314 314 313 313 313 313 313 313 313 313 313 313 313 309 311 311 312 313 312 312 311
296 299 297 293 292 288 284 287 285 287 291 295 300 295 292 294 306 312 313 314 315 316 318 320 320 320 321 322 321 322 322 323 323 323 323 323 324 324 324 324 324 324 324 324 325 325 324 322 322 322 321 323 323 322 322 322 322 323 323 324 323 322 321 320 319 320 319 317 318 317 316 315 313 312 312 313 314 314 314 313 312 312 312 313 312 312 313 312 313 311 310 312 312 312 311 311 310
298 299 301 295 293 298 290 291 292 292 291 291 294 293 298 298 310 312 314 314 315 316 313 319 317 319 321 320 320 321 321 321 322 323 323 323 324 324 324 323 323 323 323 323 323 324 323 322 322 321 321 321 321 321 320 320 320 321 321 321 321 320 319 318 318 318 318 318 317 316 315 314 313 313 313 312 313 313 313 311 311 311 312 312 312 311 311 311 311 311 310 310 310 312 310 309 309
296 298 293 296 302 299 293 292 298 293 290 289 295 298 302 307 310 309 311 311 312 312 314 316 316 318 320 319 320 320 320 321 322 322 322 322 322 323 323 322 322 322 322 322 322 323 322 321 320 319 319 320 319 319 318 318 319 318 319 319 319 319 318 316 316 316 317 316 316 315 314 313 314 314 312 313 312 312 312 312 311 311 311 311 311 311 310 310 310 310 310 309 309 311 311 309 309
299 293 296 302 304 303 296 288 290 289 286 288 295 292 297 297 294 309 307 307 308 311 316 317 318 319 317 318 319 320 320 321 323 323 322 322 321 321 322 322 322 322 322 322 321 322 322 321 320 319 318 317 317 316 315 316 316 316 316 316 317 317 316 315 315 314 315 315 314 314 313 313 312 312 312 312 312 311 311 312 311 310 310 310 310 310 310 310 310 310 310 309 309 310 309 309 309
299 297 304 296 290 290 295 292 285 284 284 287 291 294 295 296 298 304 304 305 308 312 313 316 316 316 317 317 318 320 321 321 321 320 319 320 320 320 321 320 321 321 321 321 321 322 322 320 319 318 317 316 316 316 315 315 315 315 316 316 316 315 315 315 315 315 314 312 311 311 311 312 312 312 312 312 311 310 311 311 310 309 309 309 309 309 310 309 309 308 309 309 308 308 308 307 308
302 304 299 302 299 295 292 291 293 292 286 286 288 292 290 299 302 303 304 307 312 311 312 311 315 317 317 317 317 318 320 319 319 319 319 320 320 320 320 320 319 320 320 320 321 320 320 319 318 316 316 315 315 315 315 314 314 315 315 315 314 313 313 313 313 312 311 310 310 310 310 311 311 311 311 311 309 309 309 308 308 308 308 308 307 308 308 308 309 308 308 308 307 307 306 306 306
295 296 295 296 298 301 299 298 293 290 287 287 287 286 293 300 306 306 306 307 312 313 313 313 314 318 318 317 317 318 319 319 319 319 319 319 319 320 320 320 319 319 320 319 319 318 317 317 315 314 314 313 313 313 313 313 314 314 314 313 313 313 312 311 311 311 310 310 310 310 310 310 310 310 310 309 309 308 307 307 306 306 306 306 306 307 308 308 308 307 307 307 306 306 305 305 306
296 296 294 295 293 293 289 288 297 295 291 288 287 286 296 303 308 309 308 311 312 314 317 316 317 318 317 318 318 319 319 320 320 320 320 319 319 319 319 319 319 318 317 317 317 317 316 315 314 314 313 312 311 311 312 312 313 312 312 312 311 311 311 311 311 310 310 309 309 309 310 309 309 309 309 308 307 309 307 306 305 305 305 304 305 305 306 306 306 307 306 307 307 306 305 305 305
Wind_Speed
12 11 10 11 9 10 11 6 8 0 5 8 7 9 9 12 13 14 17 5 7 11 6 3 10 8 11 10 20 18 17 12 7 3 6 5 7 10 17 17 17 17 16 12 11 11 13 15 17 18 18 18 17 16 16 16 15 15 14 13 12 11 12 12 11 10 11 11 12 11 12 12 12 12 12 12 11 11 11 12 12 12 12 12 12 11 11 10 11 10 10 10 9 9 9 10 9
10 11 11 11 9 8 5 9 7 8 7 8 10 10 12 14 14 13 14 8 9 5 11 3 6 10 8 3 9 19 18 14 13 11 9 10 10 11 17 17 15 16 14 12 11 11 11 14 17 17 18 19 18 17 16 16 16 15 14 13 12 12 11 11 11 11 11 12 12 12 12 12 12 12 12 12 11 11 11 11 11 12 12 12 11 10 9 9 9 9 9 9 8 8 9 9 9
10 10 10 9 10 8 9 8 9 9 8 9 8 9 11 13 16 17 17 13 14 10 10 9 10 9 4 11 19 13 7 9 13 13 10 13 13 8 15 16 15 15 14 12 11 11 10 12 15 17 18 18 18 18 17 16 15 15 14 12 11 11 11 11 11 12 12 11 12 13 13 13 13 13 12 12 11 11 11 11 11 12 11 11 11 10 9 8 8 8 8 8 8 8 8 8 8
10 9 8 8 7 7 8 7 9 10 11 9 9 11 11 10 9 15 12 17 9 10 8 5 10 6 11 10 11 14 11 7 9 11 8 9 10 13 13 14 14 13 12 10 11 10 10 13 15 17 18 17 18 17 17 16 15 15 13 12 11 11 10 11 12 12 12 12 12 13 13 13 13 13 13 12 12 11 10 11 11 11 11 10 10 10 8 8 8 7 7 7 7 7 7 8 7
9 8 8 8 7 7 6 6 9 9 12 8 9 9 14 14 16 18 11 2 8 3 6 8 8 5 17 14 8 5 6 11 9 6 10 12 16 15 15 14 14 14 12 13 11 10 12 17 16 15 16 18 17 17 16 16 15 15 14 12 12 11 11 11 12 12 12 12 13 13 13 13 13 13 13 13 12 12 11 11 11 11 11 10 9 8 8 7 7 6 6 5 5 6 6 6 7
10 10 9 8 6 6 7 9 9 12 12 13 13 11 15 18 18 16 16 12 9 1 1 7 9 6 8 11 6 7 6 4 8 9 12 14 18 18 16 12 14 14 14 13 11 10 11 15 14 15 16 18 17 17 16 15 15 14 13 13 12 12 12 12 12 12 13 14 13 13 13 13 13 13 13 12 12 12 12 11 11 10 10 9 8 7 7 6 6 5 5 5 5 5 5 5 5
6 7 8 8 9 7 9 11 13 12 13 15 14 14 12 14 15 18 17 19 3 4 7 7 2 6 13 8 12 8 8 8 8 11 12 17 18 14 12 11 14 17 16 13 10 11 14 11 13 14 15 16 17 17 16 16 15 15 14 13 13 12 12 13 13 13 14 14 13 13 14 13 14 13 13 13 12 12 12 11 10 10 9 8 8 7 6 6 5 5 5 6 5 4 3 2 4
8 7 5 8 8 6 10 11 13 11 13 16 17 19 17 14 16 18 20 7 1 10 4 4 7 3 12 8 8 9 12 13 15 16 18 15 15 15 10 14 16 16 15 13 11 10 14 11 13 13 14 15 16 15 16 16 15 14 14 13 13 13 13 13 13 14 13 14 13 14 14 13 13 13 13 12 12 11 11 10 10 9 8 8 7 6 6 5 5 5 6 6 5 5 4 3 3
7 7 6 8 11 9 12 13 13 13 14 14 15 16 18 15 17 17 19 8 3 7 8 13 7 3 11 16 11 9 12 17 17 17 16 17 16 14 10 15 15 15 15 13 12 11 12 11 12 13 15 16 15 15 15 15 15 14 14 14 13 13 13 13 14 14 13 13 13 13 13 13 13 12 12 12 11 11 10 10 9 9 8 7 7 6 5 4 5 5 6 6 6 5 5 4 3
7 7 7 7 7 13 13 13 13 13 16 17 19 19 19 19 21 22 20 18 8 8 13 8 5 10 16 17 14 8 8 15 16 16 16 15 14 9 15 16 18 18 15 13 12 11 10 14 11 12 13 14 14 13 13 13 14 13 14 14 14 14 14 14 13 13 13 12 12 12 12 12 12 12 11 11 11 10 10 9 9 8 7 7 6 5 5 4 4 5 6 6 6 6 5 4 3
8 7 7 10 11 13 13 12 14 14 17 17 19 19 20 21 20 5 4 6 6 8 13 16 7 17 13 12 10 10 13 15 16 16 16 14 12 13 13 16 17 16 16 14 13 11 12 12 15 12 13 13 11 11 11 12 14 14 15 14 14 15 14 13 13 13 12 12 12 12 12 12 12 12 12 11 11 10 9 9 9 8 7 6 6 4 4 4 4 5 6 6 5 5 4 3 3
9 9 8 11 11 12 13 14 16 15 18 18 15 16 16 22 5 6 6 4 7 11 11 11 3 20 13 13 10 11 14 14 14 16 16 14 12 13 14 13 15 16 17 16 14 12 13 13 12 14 13 13 13 13 12 13 14 14 14 15 15 14 13 12 13 11 11 11 11 11 11 12 12 12 11 11 10 10 9 9 9 8 7 6 6 5 4 4 4 4 5 5 5 3 4 2 3
10 8 11 13 12 12 14 16 15 18 17 17 19 20 22 21 8 11 10 3 6 10 11 11 3 18 11 10 10 13 14 12 15 16 16 13 11 13 14 14 15 16 16 16 15 15 14 13 12 12 13 16 14 14 13 13 14 14 14 15 14 14 13 13 11 11 11 11 10 10 11 11 12 11 11 11 10 9 9 8 8 7 7 6 5 5 4 3 3 4 4 4 4 3 0 2 1
10 10 10 13 13 16 15 14 13 15 13 13 12 5 7 3 5 5 3 7 8 10 8 7 4 21 16 14 10 10 11 13 16 14 12 15 11 13 13 13 15 14 16 15 15 15 14 13 12 13 13 11 11 12 13 13 13 14 13 13 14 13 13 12 10 10 10 10 10 10 10 10 10 11 11 11 10 10 9 8 6 6 6 4 4 4 3 2 3 3 4 3 3 2 2 2 2
12 9 9 11 12 14 14 14 13 13 13 15 9 4 6 9 8 6 6 7 8 6 10 7 11 12 10 15 11 13 15 18 17 12 10 10 11 11 12 13 13 15 15 15 15 15 14 13 13 13 11 11 10 7 7 10 13 13 13 14 13 13 12 11 11 11 10 9 9 9 9 9 8 10 10 9 9 10 11 8 6 6 5 3 2 2 2 1 2 2 3 4 3 2 2 3 4
10 10 9 11 13 14 13 15 14 15 11 14 11 8 5 9 8 6 5 5 5 10 6 6 14 6 18 13 16 19 20 18 14 11 11 9 10 10 13 13 13 14 13 14 13 13 14 13 11 10 10 10 9 8 8 9 11 13 13 14 13 13 12 11 11 11 10 10 9 9 9 8 8 7 9 7 7 8 6 7 6 4 3 3 1 1 0 1 2 3 3 4 3 3 3 4 5
9 9 11 11 14 14 11 13 13 13 13 8 9 8 6 6 7 2 3 1 5 9 6 12 7 21 20 14 22 22 20 16 15 15 12 9 9 9 10 10 10 10 8 12 9 10 12 12 12 10 10 10 10 9 7 8 10 12 11 13 13 12 11 11 10 9 8 7 7 7 8 5 5 5 6 6 8 6 9 8 5 4 4 3 3 3 3 3 4 4 4 5 4 4 3 4 6
9 11 11 14 12 15 12 16 12 12 16 8 10 3 3 4 2 5 6 5 8 12 5 17 20 17 20 21 24 22 20 18 16 17 13 11 9 11 11 11 11 11 10 9 10 10 10 10 9 10 8 10 9 7 7 7 8 10 9 9 9 9 9 10 8 6 7 5 6 6 5 5 5 5 4 8 5 7 6 8 6 5 4 5 5 4 5 5 4 5 6 7 6 5 5 3 4
11 10 11 13 13 11 14 13 16 15 15 10 7 4 4 3 7 1 6 5 7 11 10 19 19 19 22 23 22 21 19 17 15 15 16 13 9 12 11 11 10 12 11 11 9 9 8 8 8 9 10 10 9 8 6 7 8 6 9 8 7 9 9 9 6 6 5 6 6 6 6 1 1 2 3 5 5 6 7 8 7 6 7 7 6 6 5 6 6 6 7 7 7 7 4 5 4
14 11 12 14 13 15 16 17 19 18 9 3 10 5 6 3 3 5 5 9 7 10 11 17 21 19 20 20 21 20 17 18 15 14 15 13 11 12 12 11 10 11 11 10 10 6 8 8 9 9 11 10 8 7 7 6 6 7 7 7 6 5 6 6 6 6 6 5 3 2 2 1 4 3 4 9 8 5 5 7 7 7 7 7 7 6 6 6 8 8 7 8 6 4 4 6 6
10 13 13 12 14 16 16 18 16 8 8 9 1 4 1 5 10 6 8 10 12 9 11 21 21 22 21 20 21 19 18 18 16 14 13 13 11 9 10 11 11 10 10 10 9 8 9 9 9 9 10 9 8 8 7 7 6 6 6 7 7 6 6 5 4 3 3 2 4 2 4 4 4 3 3 4 3 2 1 3 4 4 3 5 8 5 4 5 5 5 4 5 4 5 6 7 6
10 15 16 16 14 15 17 23 19 12 5 11 5 6 4 8 5 5 6 9 9 9 8 24 25 24 23 21 19 19 19 18 16 14 13 12 11 10 8 11 9 9 9 10 10 10 9 9 9 8 8 8 8 7 7 6 7 5 4 4 4 5 7 6 5 4 2 2 5 5 3 2 2 1 2 3 2 2 2 2 1 1 2 3 0 4 5 5 5 5 5 6 6 6 7 7 7
13 14 17 18 18 18 14 16 1 6 3 5 10 6 9 10 5 8 11 11 7 5 11 20 22 24 22 22 19 17 18 18 15 11 10 10 10 9 10 10 11 9 7 10 10 9 9 8 8 8 5 4 5 6 5 6 5 4 4 5 5 4 3 4 4 4 3 6 4 2 2 2 2 1 2 4 1 2 1 2 2 1 1 2 1 3 4 2 3 4 7 6 7 8 8 3 2
15 13 15 17 16 21 20 19 5 3 6 5 8 14 8 5 12 8 10 12 11 20 16 23 19 19 20 19 17 16 15 13 10 8 6 12 10 12 11 12 10 9 10 11 11 9 7 8 7 5 6 6 4 5 6 5 4 5 4 4 3 3 3 2 3 5 5 4 3 2 2 2 2 1 1 3 4 3 3 2 1 2 1 1 2 2 4 5 7 7 4 4 3 3 4 4 4
17 16 16 15 17 17 19 18 8 4 7 11 13 11 10 8 9 11 3 7 12 19 19 19 18 18 17 18 16 14 11 9 10 9 8 9 10 10 10 9 10 10 12 11 9 9 7 7 6 5 6 5 3 5 6 4 5 5 3 3 3 4 3 2 4 5 4 2 2 1 2 3 1 1 1 0 0 0 1 1 2 2 0 1 2 1 1 4 3 3 3 5 5 3 6 4 5
17 17 15 16 17 16 18 18 12 7 6 10 12 13 12 13 9 11 5 9 1 12 13 15 15 15 15 16 16 13 12 11 8 8 7 6 6 9 10 9 10 10 9 9 8 7 7 6 6 6 6 5 4 4 2 4 3 3 3 2 5 3 3 4 5 4 3 3 3 2 2 3 3 2 1 0 1 1 1 1 1 2 2 2 2 2 3 3 3 4 2 4 5 3 2 4 3
13 17 18 16 18 17 11 15 13 13 10 10 13 12 13 14 11 5 16 13 18 22 20 14 7 11 12 13 13 10 8 5 7 3 7 7 3 3 9 9 12 11 10 9 9 8 5 5 6 7 5 5 5 5 3 4 4 4 4 3 3 3 3 5 5 3 3 2 2 1 1 1 3 1 2 3 6 2 3 0 2 2 2 3 2 3 4 4 1 2 3 3 3 3 3 3 2
16 15 18 18 18 18 12 9 13 10 12 15 12 14 13 14 15 1 9 10 14 13 11 14 18 14 11 12 10 6 8 3 5 4 5 9 6 5 10 8 9 9 8 8 7 7 6 5 4 5 4 4 5 4 3 5 2 4 3 3 4 4 3 4 4 3 3 2 3 2 1 2 3 1 1 2 2 6 4 2 3 3 0 1 1 3 2 4 4 4 5 4 2 3 5 4 3
16 16 10 13 18 18 16 15 15 14 12 13 13 13 16 16 5 12 14 12 12 12 13 12 10 3 3 6 6 6 7 5 8 10 12 10 9 5 9 9 8 7 6 8 9 6 5 5 3 4 3 2 2 3 5 5 1 1 1 2 3 4 3 3 4 3 2 3 4 5 1 2 2 2 0 2 1 7 6 8 5 1 3 2 3 4 1 5 4 4 5 3 3 3 4 4 4
15 15 12 13 13 17 18 14 13 15 13 13 12 12 12 7 11 11 12 14 13 12 12 13 7 3 1 6 7 8 7 7 10 7 4 4 7 7 10 9 7 6 7 8 8 7 5 4 3 4 6 7 13 10 8 7 8 4 5 3 3 3 2 2 3 3 3 2 2 2 2 2 1 1 1 1 1 2 0 1 4 3 6 6 2 4 3 6 4 3 4 4 3 3 4 4 4
14 13 11 10 11 13 17 14 15 15 11 13 14 11 9 9 8 9 10 15 18 13 13 14 8 3 6 7 5 4 4 4 5 6 7 5 6 9 12 9 7 9 8 7 7 7 8 11 10 7 7 8 8 10 8 6 8 8 8 7 4 1 3 2 3 3 3 3 2 3 2 1 2 1 1 1 3 1 2 2 2 1 3 5 5 3 1 0 2 2 2 4 5 5 4 4 4
12 11 14 11 12 10 16 17 18 17 12 16 15 11 6 9 9 8 6 10 15 17 16 14 9 5 4 5 5 5 4 3 6 5 3 4 7 9 9 8 7 8 7 7 10 12 11 7 5 6 4 4 4 1 4 5 5 6 7 9 8 7 1 3 3 2 2 2 3 2 2 2 1 2 2 3 2 3 2 4 2 3 4 3 2 1 2 2 3 4 2 2 4 4 5 4 4
13 15 13 14 13 12 13 21 19 21 15 17 18 10 10 8 11 10 10 12 14 14 13 12 12 13 12 10 11 8 7 3 2 5 4 5 9 11 12 12 8 8 9 12 11 9 8 6 6 6 6 4 6 6 8 6 5 6 6 5 9 8 7 3 3 3 4 3 2 3 2 2 2 3 3 4 3 3 3 2 1 2 2 2 1 0 2 1 1 2 2 2 3 4 5 6 5
13 14 12 12 15 14 13 15 21 21 19 15 19 13 8 12 12 10 11 12 11 12 11 8 8 5 7 5 7 9 6 5 6 7 6 8 9 11 10 11 8 10 10 10 8 7 7 6 6 6 6 4 4 6 6 2 2 3 4 2 5 8 11 7 4 3 3 3 4 3 3 3 4 4 4 3 1 1 1 2 2 2 2 1 2 1 1 0 1 2 3 3 2 3 4 4 4
14 13 12 12 14 16 17 13 19 20 22 19 18 18 9 16 13 11 11 9 11 11 10 10 9 9 6 4 1 10 5 7 9 8 9 11 11 9 5 8 7 9 8 10 11 9 7 6 6 6 6 5 5 5 5 3 5 5 7 5 4 3 5 8 1 3 4 4 3 4 4 4 5 6 5 4 2 4 3 4 3 3 3 2 2 4 4 4 5 5 5 6 4 4 4 4 5
15 15 14 14 12 15 17 16 18 22 20 18 18 15 12 14 13 10 10 9 9 11 10 9 8 9 7 8 7 5 5 7 8 9 11 9 9 10 8 9 9 7 8 10 11 9 7 7 7 5 5 5 5 6 5 3 4 4 5 6 6 5 6 5 3 3 3 4 6 6 6 6 7 6 7 7 7 6 5 6 6 7 5 5 6 6 6 6 8 8 8 7 7 6 5 5 5
16 16 16 17 16 14 18 20 18 20 16 18 17 16 16 13 11 11 10 10 10 10 12 11 8 7 6 6 10 7 6 6 8 11 13 13 12 10 10 8 9 8 9 11 10 9 7 6 6 6 6 6 5 5 3 3 4 3 4 6 2 4 4 3 5 5 6 5 7 7 7 7 7 7 8 8 8 8 7 6 7 7 7 6 5 6 7 8 8 7 8 7 9 9 6 6 7
18 15 16 15 18 14 16 17 19 18 15 15 13 14 15 14 13 9 9 9 10 11 11 11 11 9 10 8 10 9 9 8 8 9 12 12 10 11 10 9 10 10 9 10 10 10 8 7 7 7 5 6 5 5 4 5 4 4 4 4 2 5 5 1 4 4 5 6 7 8 7 8 8 8 8 9 9 8 7 6 7 8 8 7 7 8 8 7 8 8 8 7 7 7 7 8 9
18 14 14 14 15 16 15 18 19 18 16 12 19 14 12 13 13 11 10 9 7 8 10 11 12 13 11 9 10 10 9 8 8 11 11 11 11 11 10 10 9 8 9 10 9 9 8 7 7 6 5 6 6 6 6 4 3 4 4 4 3 3 2 3 3 4 6 7 7 7 8 7 8 8 8 8 8 8 7 7 7 7 8 7 6 7 7 8 8 7 8 7 8 7 6 7 9
15 14 14 14 14 16 13 18 20 18 12 7 16 13 10 12 11 11 8 8 7 6 8 9 8 11 11 12 12 10 10 10 10 11 12 11 12 11 10 9 10 10 10 9 9 10 7 7 7 6 7 7 8 7 6 5 6 6 6 5 4 5 2 2 3 5 6 7 7 7 6 6 7 7 8 8 6 7 7 6 6 6 6 7 6 6 7 7 7 7 7 7 6 6 7 8 6
17 18 14 12 17 19 16 10 15 15 15 10 13 11 7 7 10 9 11 10 10 7 7 9 9 8 9 7 11 10 11 13 13 12 12 13 11 11 10 8 9 11 10 10 9 8 7 9 8 8 7 7 7 7 6 4 5 7 6 4 3 2 0 1 2 4 5 6 5 6 7 8 9 8 7 8 7 6 6 6 6 6 6 5 4 5 5 5 5 5 7 5 6 6 6 6 6
15 20 18 14 17 20 15 10 14 10 12 16 19 8 5 4 7 9 9 9 9 11 9 11 13 12 11 10 12 10 10 12 16 17 15 14 12 12 10 9 7 7 11 10 9 8 9 9 10 9 7 6 7 7 6 4 5 5 5 6 2 2 1 3 4 5 5 5 6 8 9 8 8 8 8 8 7 6 7 7 7 6 5 5 5 6 7 7 7 7 7 6 6 7 6 5 6
14 15 19 15 15 22 19 18 14 11 12 15 16 9 2 4 7 9 9 8 10 10 12 10 11 13 12 10 12 12 12 14 14 14 16 15 14 14 12 10 9 10 8 9 8 9 9 10 9 8 7 6 5 6 5 5 6 4 4 3 3 3 4 4 4 4 4 4 6 7 7 7 8 8 7 7 7 7 7 6 6 5 5 5 6 6 6 6 5 6 6 6 7 7 7 7 8
14 12 17 18 17 20 17 13 12 8 11 10 15 10 6 5 7 10 10 9 11 12 11 11 11 15 14 13 11 14 10 15 14 15 15 15 14 14 13 11 11 10 10 9 8 8 9 9 10 10 7 6 4 5 5 6 6 4 3 4 3 4 5 5 5 6 5 5 5 5 6 6 7 7 6 7 6 6 5 5 5 5 5 6 6 6 5 5 5 5 5 7 6 6 6 6 7
9 14 20 20 19 16 16 14 12 12 10 12 12 15 9 8 7 11 12 11 12 13 14 15 11 11 10 9 5 6 12 13 15 14 15 15 15 13 12 11 11 12 11 10 9 10 9 8 8 8 8 6 5 5 5 3 4 4 4 4 5 4 4 5 5 5 5 4 4 5 5 5 4 5 6 5 5 6 5 5 6 6 5 5 5 5 5 5 5 6 6 7 7 6 6 5 6
13 17 19 15 10 8 15 14 14 12 12 11 15 15 10 6 11 10 11 10 11 13 14 14 14 11 7 9 10 4 6 11 13 14 14 13 14 14 13 13 12 10 9 12 10 9 8 8 10 9 8 5 4 7 7 7 7 6 5 5 5 5 4 4 4 4 4 4 5 4 4 5 5 5 5 6 5 6 6 5 5 6 5 5 5 5 5 5 5 6 7 6 7 6 5 6 6
16 17 19 14 10 10 12 13 13 9 9 13 13 17 14 9 12 15 14 14 16 13 12 12 12 11 10 10 10 8 7 10 12 14 13 13 13 14 13 13 13 11 8 11 10 9 8 8 8 10 9 7 8 8 8 8 6 5 5 5 5 5 5 4 4 4 4 4 5 4 5 5 4 5 5 4 5 5 5 6 5 5 5 5 5 5 5 5 4 6 5 6 6 6 6 6 6
21 9 11 10 11 5 3 4 8 5 9 15 16 17 17 13 9 12 15 15 16 16 18 18 16 15 13 10 7 8 11 11 14 14 15 15 14 13 14 14 13 13 13 11 9 9 9 9 10 11 10 9 9 8 7 5 5 5 4 5 4 4 4 4 4 4 4 6 5 5 5 4 4 4 4 4 5 5 5 5 5 5 5 5 5 5 5 5 4 6 5 5 5 5 5 5 5
19 15 13 13 9 5 5 5 4 8 12 10 16 17 14 16 9 17 19 17 18 17 15 18 19 16 14 14 15 15 14 14 14 14 14 12 12 14 14 14 13 13 12 12 11 9 9 10 11 11 9 8 8 8 5 5 5 5 4 4 3 3 3 3 3 4 4 4 5 6 4 4 4 4 4 4 4 5 5 5 5 5 5 5 5 5 5 6 5 6 6 6 5 5 6 5 5
20 16 16 13 11 10 8 11 7 9 12 15 12 15 13 7 10 22 21 19 21 19 15 16 17 18 17 15 16 15 14 16 15 14 13 12 12 13 15 14 14 12 12 11 11 10 8 10 11 11 11 7 7 8 6 5 5 4 4 4 2 3 5 5 5 5 5 5 6 5 4 4 4 4 4 4 4 4 5 5 5 5 5 5 5 5 5 5 5 6 6 5 5 4 5 5 5
16 16 14 12 13 9 8 10 10 10 8 13 16 10 6 11 5 17 18 19 18 20 18 16 13 14 18 17 16 16 16 15 14 13 12 11 12 13 12 13 12 12 13 11 9 9 10 11 10 11 10 8 8 8 6 5 5 4 3 3 4 4 5 5 5 5 4 5 4 5 5 5 4 4 5 4 4 4 4 4 5 5 5 5 5 5 5 5 5 6 5 5 4 4 5 6 5
15 13 12 12 12 10 10 6 9 9 9 9 9 2 1 2 6 6 13 13 15 14 17 19 16 12 15 13 15 13 13 14 13 13 13 12 13 12 11 12 12 13 14 11 11 9 11 11 10 10 9 8 7 8 7 5 4 4 5 4 5 5 6 6 5 4 4 4 5 5 5 4 4 4 4 4 4 4 4 4 5 6 5 5 5 5 5 5 5 5 5 5 5 4 5 6 5
12 15 15 14 14 11 3 5 5 4 2 6 3 6 6 9 7 13 13 15 16 18 18 22 20 18 16 14 15 15 14 14 11 12 11 12 11 11 11 12 12 13 12 11 10 10 12 11 10 10 10 8 9 8 6 5 5 6 5 5 4 5 6 6 5 6 6 5 5 4 4 5 4 3 4 3 4 4 4 4 4 4 5 5 5 5 6 5 5 5 4 5 5 4 4 5 5
11 13 14 14 14 12 8 6 4 3 5 4 10 10 9 9 4 8 17 16 14 17 21 19 17 18 16 15 14 15 14 14 13 13 13 14 14 16 15 13 12 11 11 12 12 11 10 10 10 10 9 10 9 9 8 6 6 5 6 6 6 6 6 7 6 7 6 5 5 4 4 4 4 4 4 3 3 4 4 5 3 4 4 5 5 5 5 5 4 5 5 5 5 4 5 5 5
14 15 9 13 8 12 9 3 7 8 7 4 11 15 11 11 8 9 14 17 14 10 14 20 20 18 16 14 15 15 15 13 13 13 12 13 13 14 14 14 14 12 11 11 12 11 11 11 10 9 10 9 9 8 8 7 6 5 4 6 7 7 6 6 6 6 5 6 6 5 4 4 4 3 4 3 3 4 3 3 3 4 4 5 5 5 4 4 5 5 5 5 5 5 5 5 5
20 16 15 14 9 10 9 5 5 7 6 5 9 15 6 10 8 17 13 15 18 16 8 14 18 19 15 15 13 15 16 12 11 12 12 12 14 16 16 15 15 15 13 12 11 9 12 12 12 11 9 9 9 7 6 7 7 7 7 7 7 8 8 7 6 6 6 6 6 5 5 5 4 4 3 3 4 4 4 4 4 5 5 5 5 5 5 5 4 5 4 5 5 5 6 6 5
16 15 14 13 9 8 10 9 10 7 5 7 5 7 7 6 11 17 17 15 22 19 16 14 16 16 16 17 14 14 16 13 12 13 13 14 15 16 15 14 16 14 11 11 10 11 10 12 12 11 12 11 10 8 8 7 6 7 8 7 7 7 7 7 7 6 7 6 5 5 5 4 4 4 3 4 4 5 5 5 6 7 7 6 6 6 5 4 4 4 4 4 5 6 6 5 5
12 9 11 14 13 11 13 10 9 9 7 5 6 6 5 6 7 13 14 13 19 21 19 16 17 17 17 15 16 16 14 14 13 13 15 14 14 15 14 13 13 13 13 13 11 11 13 13 12 12 11 11 11 10 10 9 7 8 9 8 7 6 7 7 7 6 6 6 5 5 5 5 5 4 4 5 5 4 5 7 7 8 7 7 7 7 6 5 5 4 4 4 5 5 5 5 4
Wind_Direction
301 299 304 301 298 291 292 250 277 323 280 274 282 257 280 305 298 304 306 26 284 47 68 45 12 343 0 1 84 66 38 53 30 335 112 141 148 144 108 110 112 114 115 116 123 126 127 125 121 121 121 120 120 118 116 116 117 113 114 114 113 111 107 104 102 102 98 98 98 96 95 91 89 87 85 85 87 87 94 100 104 107 101 101 102 104 103 103 102 96 92 87 86 83 82 82 81
306 312 302 290 281 305 302 345 294 279 257 264 255 264 269 274 284 276 277 260 265 106 97 326 348 346 296 303 97 90 49 43 69 94 117 132 137 109 118 118 116 116 117 124 127 129 128 128 124 123 123 123 122 121 118 118 119 118 117 117 116 114 110 107 106 102 99 99 99 98 96 93 92 90 86 86 87 88 96 101 101 101 103 102 103 104 101 98 98 93 92 92 87 83 81 79 79
306 310 303 294 275 232 271 248 266 272 270 270 272 256 239 253 258 264 268 280 297 17 34 338 326 293 19 28 45 51 88 65 74 94 110 134 119 122 118 120 114 115 123 123 126 125 129 132 127 125 124 124 122 121 120 120 120 120 120 119 120 119 114 108 106 104 102 101 103 101 97 96 95 92 90 91 95 93 95 99 102 100 100 104 106 107 107 105 98 96 91 87 86 88 84 81 78
291 278 280 303 297 315 285 275 260 270 273 270 280 278 284 286 279 266 301 294 306 18 4 342 313 38 293 72 101 85 81 76 83 118 121 136 113 129 115 107 118 125 123 125 124 125 129 136 130 126 125 123 123 122 122 121 121 123 122 124 124 119 113 111 107 108 108 108 107 104 100 98 95 94 94 93 95 99 98 96 98 97 95 97 99 99 103 98 94 89 88 89 92 87 88 86 84
278 272 262 274 304 279 289 284 283 273 259 252 250 244 241 237 241 254 240 132 52 48 326 314 282 1 59 79 71 90 99 102 109 111 114 108 117 118 120 126 130 127 125 121 115 120 130 137 131 127 125 124 124 124 124 124 125 125 126 126 123 118 115 114 113 111 112 110 106 101 101 99 96 94 94 95 97 98 94 91 92 95 91 87 85 85 83 86 84 82 79 77 79 83 87 97 88
258 262 258 250 262 339 286 265 258 262 275 293 297 299 305 300 295 306 291 141 113 245 194 258 261 272 70 69 84 112 152 138 113 104 116 123 122 128 134 143 132 135 119 106 118 124 134 135 130 127 125 125 124 125 124 126 125 127 127 124 122 120 121 118 115 115 114 110 106 103 102 101 97 94 92 95 96 96 96 97 92 92 97 95 93 91 88 83 82 76 71 62 58 75 90 97 101
270 276 247 229 237 238 256 262 262 263 259 269 269 267 255 265 278 283 270 257 277 211 152 257 297 280 112 104 75 51 68 119 142 120 119 124 127 136 143 153 140 111 114 120 119 127 133 131 128 127 127 123 123 124 125 125 127 127 128 125 121 124 121 118 116 115 112 108 105 104 103 101 100 97 94 93 93 97 98 97 96 88 85 83 80 79 77 72 67 59 54 53 55 64 97 110 109
259 272 295 280 277 242 242 254 256 254 260 255 264 271 277 283 278 270 278 23 43 279 297 92 135 316 91 134 100 62 81 82 102 113 123 129 133 143 157 107 109 117 116 117 114 122 132 129 128 129 123 123 124 122 124 123 125 128 125 121 121 120 119 118 117 114 110 108 108 106 103 103 101 101 97 93 93 91 92 89 90 87 81 81 78 70 66 67 62 52 47 52 55 63 85 130 159
245 238 250 266 264 266 268 263 273 270 276 265 260 263 270 268 269 268 281 307 311 276 269 281 113 270 104 91 86 99 85 101 114 120 125 135 141 149 124 123 121 117 114 113 115 129 134 130 132 128 125 125 124 123 124 124 125 126 123 122 119 118 118 117 117 113 110 110 109 107 106 104 104 102 101 98 94 95 93 94 91 86 80 78 75 69 64 63 54 45 43 45 53 62 71 107 152
241 229 236 246 263 261 262 259 255 256 260 261 261 253 247 246 238 241 253 259 278 294 292 290 313 105 121 112 119 115 119 119 120 126 131 135 135 147 137 123 117 117 118 119 126 131 135 137 132 126 123 126 127 126 124 125 126 127 123 120 120 120 119 118 116 115 113 111 108 108 106 104 102 101 100 101 101 98 95 92 87 81 74 69 69 64 59 48 41 39 42 41 47 57 63 81 138
242 212 237 260 252 261 259 263 257 258 257 259 259 263 256 245 237 305 31 342 352 295 296 296 236 124 118 98 96 115 135 131 132 134 138 132 142 147 143 125 120 124 127 128 127 130 134 137 133 124 124 126 121 118 116 120 126 123 122 122 122 122 122 120 119 118 116 115 113 111 110 108 105 101 100 100 102 99 98 90 87 81 72 65 59 54 48 46 29 32 39 38 39 50 59 85 112
248 234 221 237 242 254 260 263 265 267 272 271 268 264 261 265 294 265 222 219 252 259 253 277 247 118 110 118 130 139 138 141 142 136 132 146 151 148 124 117 123 128 133 130 129 137 136 136 134 128 110 106 112 115 117 123 126 127 127 126 125 123 122 121 120 118 116 115 114 112 112 110 107 104 103 104 102 100 93 88 81 77 68 61 52 46 39 31 18 19 24 33 38 45 66 83 113
239 241 240 255 250 242 252 259 264 268 273 276 291 290 286 283 201 224 266 299 285 290 274 250 142 132 128 108 133 134 139 138 133 142 146 150 154 130 128 134 132 135 132 132 138 136 140 137 136 135 123 119 121 124 125 125 126 128 129 129 128 127 124 123 120 117 117 117 116 116 114 114 111 109 107 105 100 94 86 81 76 71 67 55 48 39 36 23 8 354 9 17 28 27 34 104 147
231 230 248 255 256 257 256 262 270 273 270 279 266 340 358 12 86 82 166 235 254 260 269 269 238 97 105 115 132 142 142 146 141 147 154 151 150 137 135 132 131 134 138 142 138 142 139 139 135 136 136 134 128 122 124 126 127 128 131 132 131 129 128 125 122 122 123 124 123 121 120 118 117 114 112 108 103 98 89 80 77 72 65 57 47 39 29 14 356 342 335 353 6 353 303 223 181
236 232 248 255 257 258 255 258 259 258 257 253 267 171 100 61 104 175 208 250 254 281 259 182 136 143 159 142 155 153 150 151 148 154 135 136 132 131 125 125 135 141 145 143 145 144 140 135 134 139 141 138 137 130 128 128 128 132 136 137 133 132 132 132 133 134 135 135 130 124 115 107 108 110 110 113 116 115 115 105 89 75 70 62 61 47 24 354 330 317 311 319 327 342 297 245 227
226 240 239 247 245 249 250 258 260 266 272 270 72 87 122 140 186 218 201 217 269 272 289 234 165 241 152 152 154 149 149 146 141 126 117 119 132 132 127 139 147 145 144 148 155 142 135 138 145 140 138 140 139 135 130 131 133 137 140 137 137 139 141 143 143 144 143 138 133 129 127 129 130 129 131 125 123 126 118 112 109 103 97 95 82 194 232 245 245 280 279 300 301 293 293 259 233
222 239 241 238 248 246 242 247 253 256 259 207 166 110 219 197 179 145 25 260 261 248 214 34 9 126 162 139 135 137 144 135 130 126 124 138 141 137 143 147 143 142 144 146 137 132 133 145 147 138 145 142 139 138 133 130 133 138 141 141 145 150 150 147 148 149 144 138 139 148 157 164 159 147 168 141 147 133 117 119 131 145 157 163 189 220 226 222 211 242 268 272 284 281 278 260 239
216 221 234 242 244 238 244 248 245 253 268 126 211 137 124 233 185 218 149 218 247 265 141 74 65 69 99 113 127 138 137 137 138 134 140 150 156 148 151 153 147 146 145 136 131 133 140 143 144 141 140 133 136 139 139 138 145 152 148 149 157 162 153 151 154 158 155 148 170 176 190 202 164 174 180 138 139 131 136 143 158 173 177 198 211 213 229 234 222 225 248 265 274 277 268 257 214
220 220 229 238 232 245 246 251 247 250 243 176 118 83 84 285 305 75 229 199 204 246 113 98 90 96 107 121 130 136 139 143 143 143 145 158 163 153 155 154 146 147 137 139 134 133 130 134 140 138 137 136 143 139 139 143 170 156 155 161 162 165 164 159 175 166 164 163 189 190 210 257 97 93 101 150 130 137 146 168 180 189 198 211 210 221 228 233 243 229 239 256 270 277 271 248 213
217 238 225 230 240 247 239 233 245 245 299 254 72 137 216 236 220 274 241 265 215 231 140 113 115 119 124 130 137 138 144 149 152 149 152 162 162 159 152 143 144 145 137 136 135 137 138 140 142 141 141 144 144 140 141 157 177 149 162 163 156 170 166 181 184 168 186 183 151 91 38 92 84 73 87 111 131 140 154 175 191 207 217 228 223 223 229 237 238 246 245 253 266 258 238 245 228
195 227 238 233 222 239 256 265 268 317 353 314 229 61 290 248 232 215 252 235 244 223 197 140 135 133 135 142 144 147 147 155 155 155 153 162 162 150 149 143 148 143 145 135 133 143 141 142 146 147 152 165 145 149 161 158 173 167 174 151 167 165 173 183 169 181 167 132 132 104 72 39 38 41 35 18 14 19 134 178 183 210 219 232 215 232 215 213 203 210 225 228 241 244 237 235 258
216 223 233 242 247 237 234 243 238 233 176 256 320 239 244 264 33 284 284 262 254 205 240 142 138 137 142 145 151 152 155 157 156 158 155 157 156 154 144 137 132 134 137 139 137 138 138 140 146 152 165 169 152 149 166 151 162 180 142 141 171 175 160 175 163 169 130 151 70 74 72 89 58 53 57 51 5 350 0 353 285 274 293 302 159 223 236 212 196 203 197 203 217 237 249 242 232
229 228 230 234 246 263 261 271 18 311 244 237 260 272 271 286 290 248 242 255 262 0 55 135 137 142 146 146 146 155 157 155 156 143 153 159 163 149 149 138 134 134 146 130 137 133 142 145 152 158 149 154 158 156 136 152 184 122 143 162 167 195 144 144 152 133 132 78 81 94 132 101 116 169 143 114 172 225 252 268 277 227 231 280 5 328 317 313 248 206 198 199 208 221 240 263 232
223 233 233 233 236 249 259 269 320 173 265 255 258 262 267 272 244 259 258 247 58 62 91 128 136 135 138 140 148 148 152 137 127 140 174 169 160 154 145 141 140 142 132 131 134 136 143 146 154 163 149 159 171 118 135 179 123 127 198 170 138 129 128 166 119 104 92 100 104 164 128 139 146 140 194 159 159 186 201 209 247 286 96 277 308 343 329 328 321 330 324 291 268 241 240 235 249
225 230 237 247 236 237 252 251 249 151 235 250 265 257 242 244 262 265 349 317 102 84 102 119 123 129 135 138 148 135 116 131 153 164 173 170 152 139 141 133 139 131 130 133 133 134 143 140 155 156 144 156 118 135 183 152 135 158 161 154 133 140 131 77 85 86 89 101 149 127 134 136 119 346 169 208 178 54 21 282 343 331 37 310 319 322 311 291 285 332 342 307 299 339 350 345 333
221 235 228 238 251 233 229 244 238 201 218 226 236 239 245 249 247 248 45 30 40 131 115 114 120 132 136 141 135 127 139 137 150 161 178 122 134 139 138 137 125 126 130 119 119 124 128 151 149 143 157 133 126 203 147 108 130 128 145 173 106 138 82 103 94 111 131 148 132 204 170 150 164 178 123 243 78 253 136 277 189 292 351 329 338 327 302 275 339 327 311 315 321 313 297 298 303
207 224 239 231 242 248 251 230 210 220 231 234 231 232 237 240 238 192 54 52 53 44 18 15 100 127 125 105 89 103 114 108 133 22 59 39 331 189 118 129 137 132 131 128 127 130 140 159 159 147 150 140 164 197 128 126 136 145 155 140 111 104 138 127 111 100 104 75 109 293 294 151 129 235 177 156 128 287 297 308 255 283 348 333 8 323 304 312 200 241 282 274 288 303 287 287 322
244 226 221 227 240 241 238 238 245 228 224 234 236 242 241 242 223 157 75 73 74 86 85 57 2 352 42 79 100 91 78 49 23 30 108 140 191 200 138 142 127 126 125 130 126 121 151 162 133 149 135 157 184 140 110 123 118 132 139 111 126 134 102 74 121 120 132 147 147 174 173 327 91 150 253 113 195 129 228 183 296 255 57 232 227 254 311 296 303 287 274 249 262 324 320 318 313
231 242 266 223 224 245 221 223 221 229 236 216 230 241 239 236 162 90 86 102 100 108 116 96 86 5 303 102 113 122 120 122 123 155 179 174 169 155 123 117 126 125 119 110 112 127 135 117 131 128 126 177 159 100 80 26 63 122 75 131 110 106 102 140 122 122 152 166 138 164 218 129 110 142 189 270 142 172 170 133 207 163 190 52 318 262 276 314 285 282 251 265 300 281 281 280 283
232 228 217 237 228 231 225 209 226 215 228 210 198 232 229 220 107 102 106 105 106 100 88 92 95 188 59 69 76 96 125 162 164 167 139 125 135 157 122 127 130 122 112 111 124 129 112 108 107 75 33 23 19 8 16 11 323 355 343 10 87 102 130 106 112 116 126 114 91 96 123 109 136 86 105 341 19 26 40 126 104 204 132 153 219 259 134 242 283 270 328 286 261 256 264 263 250
229 227 213 231 231 225 215 205 211 226 204 214 192 233 227 108 93 89 112 127 120 103 92 111 119 73 53 35 71 103 119 359 23 111 162 156 150 132 128 137 124 105 107 126 130 125 81 49 40 39 32 29 24 4 9 16 346 339 336 329 19 39 134 105 137 137 151 126 117 100 82 57 67 94 68 43 3 320 48 48 77 138 63 122 202 232 262 271 223 303 13 348 346 324 308 311 316
219 218 220 212 234 227 214 198 213 217 196 215 207 227 213 123 105 99 103 101 98 96 101 97 103 76 58 104 74 41 68 131 123 220 146 140 124 114 115 97 95 101 119 111 75 72 68 81 108 123 125 98 124 159 25 39 38 15 335 347 338 332 319 162 73 102 92 91 100 100 86 70 90 49 62 85 11 9 30 57 4 24 21 30 27 355 9 6 360 350 337 357 329 309 313 312 313
209 217 215 215 209 234 222 200 202 209 216 201 215 217 132 143 118 110 106 108 102 112 120 114 135 153 158 151 148 162 148 119 133 211 178 126 98 65 53 43 24 47 51 72 83 93 105 133 112 83 80 60 20 40 46 19 29 35 36 352 311 329 313 332 183 96 86 110 128 88 67 57 58 63 43 52 50 28 23 83 83 347 106 54 316 317 59 10 2 337 317 325 298 308 316 320 321
211 204 225 212 211 214 243 196 193 195 215 209 197 223 176 131 129 118 118 122 122 121 126 136 131 129 134 138 144 132 141 141 157 198 167 109 88 96 125 147 139 100 89 93 94 98 99 95 101 96 100 90 61 63 69 25 38 50 87 43 343 330 330 331 333 85 61 51 58 67 65 54 43 51 51 50 35 47 43 52 52 26 70 85 2 15 161 111 312 343 334 328 332 309 304 311 309
199 194 209 213 218 216 227 225 174 195 198 223 192 218 192 130 136 139 128 129 126 134 144 141 148 150 141 120 304 132 183 158 167 183 143 100 103 111 114 104 102 104 107 107 101 107 121 124 107 112 108 105 79 84 70 89 74 60 68 32 352 304 300 287 163 59 72 60 68 78 73 60 54 55 51 28 36 26 31 34 37 26 38 46 20 12 19 20 10 3 356 344 330 327 322 318 321
204 195 200 218 215 207 224 230 172 192 191 211 210 201 158 137 132 134 131 138 129 128 138 146 147 153 150 105 60 55 192 175 151 155 115 104 117 129 129 126 117 111 112 108 108 103 102 104 116 125 101 97 85 75 81 69 71 53 68 45 23 358 292 249 26 54 62 67 62 52 49 41 44 38 40 35 26 28 24 26 19 9 17 28 27 23 17 20 12 6 1 346 340 340 338 337 330
212 199 200 211 224 214 222 233 170 183 194 208 212 205 134 144 140 133 139 149 142 139 144 151 151 149 136 123 132 172 144 136 158 149 129 118 122 134 136 130 125 121 105 111 115 110 116 119 110 97 104 89 80 100 104 73 106 79 66 67 52 293 279 327 40 48 57 51 50 48 40 44 44 34 39 40 30 23 28 27 26 29 21 19 24 30 24 28 17 10 4 358 358 351 346 342 6
216 208 202 208 221 227 211 226 161 172 204 197 202 126 138 139 134 125 130 157 164 155 159 167 161 151 156 141 141 144 130 146 154 138 128 120 132 145 138 130 135 125 122 117 120 120 119 123 103 100 90 105 107 109 90 75 67 83 66 87 61 253 250 321 63 52 56 56 50 46 42 38 34 34 38 36 34 23 21 24 27 28 24 19 21 28 28 24 15 14 14 359 5 349 342 0 6
236 220 206 210 213 235 212 221 168 171 199 209 139 144 142 142 127 138 159 168 175 166 156 165 154 150 151 154 138 152 145 153 151 139 137 135 144 147 139 142 143 125 119 113 116 119 126 118 117 113 112 102 88 78 81 76 73 83 113 111 116 269 304 31 45 58 60 60 49 49 43 41 37 35 34 40 33 25 24 21 30 26 26 19 20 27 22 19 12 5 21 7 352 355 348 358 355
234 238 217 204 209 214 214 214 176 174 181 179 147 142 150 126 124 155 180 175 178 163 158 146 157 155 164 160 149 143 145 155 161 150 141 148 155 148 148 147 138 125 120 126 135 127 116 104 112 107 93 87 78 81 98 104 101 96 78 84 94 282 38 47 59 56 60 57 53 51 49 41 44 43 36 40 39 30 27 23 24 30 26 21 21 22 20 17 11 2 18 15 8 355 350 344 337
228 240 239 206 206 216 237 198 165 158 178 175 129 119 122 147 158 171 180 187 150 160 159 153 151 162 147 135 133 148 148 165 165 157 149 152 154 147 145 154 138 131 131 131 129 134 135 125 108 94 91 96 103 109 112 118 115 105 101 108 154 189 224 122 81 59 63 60 55 46 41 46 40 36 36 32 31 29 26 26 21 31 20 22 12 27 28 9 3 3 20 10 9 355 347 338 346
219 229 231 220 201 223 197 158 152 184 183 196 124 139 175 171 179 170 161 174 172 162 176 178 165 160 159 166 156 162 161 187 167 163 156 152 142 136 139 147 140 138 136 132 125 125 120 107 101 105 109 100 101 99 98 93 68 69 78 73 13 234 91 32 42 56 51 48 52 56 43 40 42 33 31 29 20 19 26 25 23 23 14 8 358 31 30 13 9 17 15 10 5 8 348 333 356
217 211 227 239 212 222 204 165 177 190 203 186 144 157 183 174 195 177 164 178 167 176 173 177 173 156 165 180 166 165 187 171 162 153 152 144 136 133 131 128 122 119 108 116 111 112 106 106 102 99 92 79 89 108 122 113 93 80 82 103 226 202 119 66 59 58 61 62 60 60 54 39 37 39 29 23 23 21 27 26 23 18 14 1 38 34 32 23 11 25 14 17 18 360 6 5 1
216 200 221 238 240 235 209 174 187 210 218 212 193 197 165 191 202 175 166 179 178 179 174 180 180 165 172 191 168 159 191 165 157 151 145 138 135 132 130 126 122 112 106 108 106 107 100 100 105 100 95 105 108 102 87 90 93 96 88 117 120 72 78 100 82 68 61 55 61 69 67 49 37 40 37 31 28 29 33 29 27 21 19 13 39 33 26 25 21 31 11 37 15 20 19 16 7
210 196 216 225 246 234 171 185 185 218 217 228 209 201 207 179 191 171 171 177 192 185 180 171 183 176 168 125 96 156 187 171 153 149 143 138 133 130 129 118 115 111 111 108 109 110 106 99 98 102 102 101 95 90 96 102 107 133 156 124 109 101 94 96 91 85 75 71 69 69 78 82 70 45 36 27 38 31 28 34 31 31 23 21 32 29 21 26 27 32 21 40 18 26 7 30 28
207 200 214 225 235 256 212 207 199 203 220 227 211 195 219 199 175 175 181 189 194 193 186 176 182 175 149 133 148 218 256 163 145 140 138 129 126 127 120 118 114 109 109 110 109 104 93 96 96 105 107 106 119 108 100 96 84 70 78 98 105 100 89 76 92 113 117 106 88 68 58 63 65 61 42 26 29 40 29 26 37 36 27 27 30 30 22 19 31 36 24 39 33 30 1 31 33
214 212 195 210 215 234 218 213 200 204 232 231 215 196 211 218 177 175 175 197 194 181 186 181 160 149 152 154 156 167 238 160 141 137 134 128 126 125 126 122 119 117 110 108 103 103 105 97 93 87 92 97 84 79 73 70 65 82 99 99 101 113 121 136 140 140 142 137 103 91 83 72 58 57 54 33 26 38 33 30 31 39 32 28 27 34 24 9 33 46 26 39 33 32 10 35 28
222 214 186 197 209 258 268 215 188 190 231 226 217 213 201 233 175 185 185 190 190 180 179 171 151 163 155 160 151 177 199 168 141 137 136 128 128 129 127 125 127 128 123 114 108 103 102 99 91 79 66 71 78 73 83 81 76 79 80 95 113 126 138 147 153 148 140 108 117 107 88 77 66 67 65 53 34 33 35 31 28 33 34 28 25 32 26 5 34 49 29 41 32 31 16 37 31
222 228 195 197 182 178 197 211 227 220 226 212 220 209 216 225 199 177 176 180 184 188 183 161 159 160 146 164 170 190 167 149 141 140 137 133 133 135 135 130 131 131 124 122 118 114 113 109 99 98 89 78 87 90 81 89 100 96 88 77 78 105 119 120 89 71 61 75 71 81 76 72 65 57 46 47 46 39 34 30 33 27 33 27 28 30 30 17 21 56 32 35 28 30 21 22 32
216 219 204 190 192 181 199 198 212 227 233 237 226 216 236 213 222 169 182 181 179 177 181 147 151 155 153 174 176 161 149 142 141 144 143 140 140 142 136 131 130 126 125 125 127 128 128 110 107 103 102 101 98 91 83 84 83 86 87 94 79 69 71 71 66 74 55 60 69 72 81 84 82 71 59 49 33 43 40 39 32 38 34 34 31 28 40 28 24 48 37 32 26 24 31 22 25
204 222 194 202 207 180 188 201 202 215 220 213 222 226 226 219 82 158 176 177 176 174 167 142 131 144 155 167 159 146 147 141 144 146 146 142 141 138 135 131 130 130 131 128 127 131 110 103 107 112 115 112 104 108 114 100 100 96 102 119 97 82 81 74 67 62 74 88 77 84 71 73 72 68 58 44 39 34 47 44 42 32 36 30 30 27 31 36 26 50 39 20 25 17 40 29 21
203 209 187 201 217 179 205 185 209 211 220 218 184 226 252 256 149 187 164 169 185 175 165 123 133 152 154 155 151 142 140 144 148 147 146 145 138 136 127 124 131 133 133 133 135 128 115 117 117 115 110 102 94 89 92 105 92 96 87 63 84 85 81 76 75 78 76 75 84 82 81 78 79 71 65 61 45 40 36 45 43 43 35 31 30 33 33 34 30 42 45 24 22 22 33 30 28
183 202 196 202 215 202 191 200 183 28 249 226 187 140 77 104 152 148 154 171 181 187 141 131 152 161 165 152 144 143 148 148 151 145 141 136 134 133 131 132 138 139 141 141 132 114 112 114 116 116 113 112 108 104 96 79 87 99 105 105 84 90 104 107 100 105 97 79 82 87 81 78 73 74 77 66 67 51 45 45 46 46 40 34 30 31 34 35 37 27 39 30 20 17 27 36 24
169 199 197 214 219 218 199 208 162 241 211 202 194 198 151 174 166 181 162 184 186 143 126 136 142 152 161 152 149 149 149 149 148 142 136 141 143 144 143 143 145 143 133 124 114 114 118 118 119 121 125 114 98 102 101 102 99 93 93 96 108 109 101 107 121 117 112 114 103 89 89 84 84 79 74 75 70 65 48 49 51 45 50 39 33 27 35 33 35 30 26 32 18 16 29 31 29
205 191 192 220 175 218 182 217 197 194 211 214 203 212 199 190 168 171 186 175 138 122 135 144 152 155 148 154 152 153 144 144 141 141 144 146 148 148 146 142 138 124 125 120 124 134 129 121 121 121 115 117 122 121 126 130 123 117 125 128 122 114 118 121 107 100 93 97 95 91 88 84 74 66 75 74 72 65 64 55 51 53 44 49 33 28 34 33 34 35 22 23 21 22 34 23 36
228 181 202 227 231 213 177 192 238 189 213 212 222 205 214 183 178 171 181 177 134 143 161 168 158 159 148 151 159 153 145 146 146 147 148 149 152 150 149 144 140 136 132 134 132 130 124 119 120 121 119 120 125 126 125 127 138 147 133 115 111 120 122 118 118 115 112 106 102 97 92 85 80 76 66 68 66 61 61 64 46 48 52 47 41 29 29 32 29 41 27 19 25 25 34 25 31
205 190 197 196 239 205 223 169 215 204 208 202 237 204 209 198 174 170 180 173 142 151 164 167 158 154 144 153 154 154 153 151 158 155 152 153 153 150 146 141 137 131 130 131 130 125 126 122 122 125 126 128 127 127 128 128 133 118 111 113 110 102 100 98 96 92 90 86 86 85 83 84 83 84 79 63 64 67 55 49 53 45 42 37 42 32 28 28 22 37 38 23 31 28 32 29 23
200 206 206 200 201 200 199 205 186 220 217 209 218 237 191 218 162 168 174 168 150 154 145 146 149 149 150 155 159 152 156 157 157 157 152 151 148 143 140 135 135 135 138 138 137 137 136 131 131 131 130 130 131 132 133 133 117 112 116 117 115 113 107 105 102 103 99 97 94 94 92 82 78 73 70 65 64 58 64 61 51 46 42 37 31 33 23 26 17 24 36 32 33 25 29 32 21